Regional Weather Roundup
Issued by NWS Sioux Falls, SD

Home | Current Version | Previous Version | Text Only | Print | Product List | Glossary Off
Versions: 1 2 3 4 5 6 7 8 9 10 11 12 13 14 15 16 17 18 19 20 21 22 23 24 25 26 27 28 29 30 31 32 33 34 35 36 37 38 39 40 41 42 43 44 45 46 47 48 49 50

000
ASUS43 KFSD 300402
RWRFSD

WEATHER ROUNDUP FOR SE SOUTH DAKOTA/SW MINNESOTA/NW IOWA
NATIONAL WEATHER SERVICE SIOUX FALLS SD
1000 PM CST THU JAN 29 2015

NOTE: "FAIR" INDICATES FEW OR NO CLOUDS BELOW 12,000 FEET WITH NO
SIGNIFICANT WEATHER AND OR OBSTRUCTIONS TO VISIBILITY.


SDZ038>040-050-052>070-300500-
SOUTHEAST SOUTH DAKOTA

CITY           SKY/WX    TMP DP  RH WIND       PRES   REMARKS
CHAMBERLAIN    NOT AVBL
HURON          CLEAR     20  16  84 E5        30.53F WCI  13
MADISON        CLOUDY    19  19 100 N9        30.52R WCI   9
MITCHELL       CLEAR     21  18  88 E5        30.54F WCI  15
SIOUX FALLS    CLOUDY    23  17  78 N7        30.53R WCI  15
WINNER         FAIR      26  19  74 SE9       30.47F WCI  17
YANKTON        CLEAR     21  18  86 NE5       30.55S WCI  15
$$

MNZ071-072-080-081-089-090-097-098-300500-
SOUTHWEST MINNESOTA

CITY           SKY/WX    TMP DP  RH WIND       PRES   REMARKS
FAIRMONT       FAIR      18  10  73 NW12      30.50R WCI   5
JACKSON        PTCLDY    19  14  79 NW17G24   30.52R WCI   4
LUVERNE        PTCLDY    25  19  80 N5        30.53S WCI  19
MARSHALL       CLOUDY    18  10  73 N13       30.56R WCI   4
MONTEVIDEO     PTCLDY    14  10  85 N5        30.57S WCI   6
PIPESTONE      CLOUDY    21  16  79 N6        30.50S WCI  14
REDWOOD FALLS  CLEAR     16  10  77 NW10      30.55R WCI   4
TRACY          CLOUDY    19  15  82 N10       30.54R WCI   8
WINDOM         CLEAR     16  12  86 NW13      30.52R WCI   2
WORTHINGTON    CLOUDY    19  12  73 N10       30.52S WCI   8
$$

IAZ001>003-012>014-020>022-031-032-NEZ013-014-SDZ071-300500-
NORTHWEST IOWA

CITY           SKY/WX    TMP DP  RH WIND       PRES   REMARKS
ESTHERVILLE    CLEAR     18  13  80 NW17      30.51R WCI   3
SIOUX CITY     CLOUDY    30  21  69 N9        30.54S WCI  22
SPENCER        CLEAR     21  15  78 N14       30.53R WCI   8
$$

ABBREVIATIONS USED IN REMARKS
   TC - TEMPERATURE IN CELSIUS
  WCI - WIND CHILL INDEX
   HX - HEAT INDEX
  VSB - VISIBILITY




USA.gov is the U.S. government's official web portal to all federal, state and local government web resources and services.